Location: Moscow
(55.7500°N, 37.5830°E)
Time: 10:52:55
(UTC+03:00)

Vanguard 3 - Pass Details

Date: 06 December 2021
Orbit: 508 x 3260 km, 33.3° (Epoch: 19 January)

Event Time Altitude Azimuth Distance (km) Brightness Sun altitude
Rises 04:53:54 0° 236° (SW) 7,093 - -30.6°
Reaches altitude 10° 04:59:21 10° 228° (SW) 6,179 - -29.8°
Exits shadow 05:02:31 16° 222° (SW) 5,682 11.0 -29.4°
Maximum altitude 05:15:13 32° 175° (S) 4,337 10.8 -27.6°
Drops below altitude 10° 05:28:19 10° 121° (ESE) 5,101 12.0 -25.7°
Sets 05:32:15 0° 112° (ESE) 5,754 12.7 -25.2°
